Location: Cortos
(40.7190°N, 4.5893°W)
Time: 04:38:12
(UTC+00:00)

Cosmos 1758 Rocket - Pass Details

Date: 05 July 2020
Orbit: 601 x 637 km, 82.5° (Epoch: 11 August)

Event Time Altitude Azimuth Distance (km) Brightness Sun altitude
Exits shadow 21:07:50 - 181° (S) 2,241 6.0 -12.1°
Reaches altitude 10° 21:08:23 10° 180° (S) 2,016 5.8 -12.1°
Maximum altitude 21:12:51 74° 96° (E) 666 3.6 -12.7°
Drops below altitude 10° 21:17:21 10° 11° (NNE) 2,032 6.7 -13.3°
Sets 21:19:37 0° 10° (N) 2,943 7.6 -13.6°
